Time,TemperatureF,DewpointF,PressureIn,WindDirection,WindDirectionDegrees,WindSpeedMPH,WindSpeedGustMPH,Humidity,HourlyPrecipIn,Conditions,Clouds,dailyrainin,SoftwareType,DateUTC
2013-02-06 00:00:00,30.6,25.2,30.08,WNW,292,4.9,4.9,80,0.00,,,0.00,WUHU21623XXSP,2013-02-06 06:00:00,
2013-02-06 00:05:00,30.7,25.0,30.08,WNW,292,0.0,4.9,79,0.00,,,0.00,WUHU21623XXSP,2013-02-06 06:05:00,
2013-02-06 00:10:00,30.7,25.0,30.08,NW,315,0.0,4.9,79,0.00,,,0.00,WUHU21623XXSP,2013-02-06 06:10:00,
2013-02-06 00:15:00,30.7,25.0,30.08,WNW,292,0.4,0.4,79,0.00,,,0.00,WUHU21623XXSP,2013-02-06 06:15:00,
2013-02-06 00:20:00,30.7,25.0,30.09,NW,315,0.0,0.4,79,0.00,,,0.00,WUHU21623XXSP,2013-02-06 06:20:00,
2013-02-06 00:25:00,30.9,24.9,30.09,WNW,292,0.0,0.0,78,0.00,,,0.00,WUHU21623XXSP,2013-02-06 06:25:00,
2013-02-06 00:30:00,30.9,24.9,30.09,NW,315,5.8,5.8,78,0.00,,,0.00,WUHU21623XXSP,2013-02-06 06:30:00,
2013-02-06 00:35:00,30.9,24.9,30.09,WNW,292,0.0,5.8,78,0.00,,,0.00,WUHU21623XXSP,2013-02-06 06:35:00,
2013-02-06 00:40:00,30.9,24.9,30.09,WNW,292,0.0,2.7,78,0.00,,,0.00,WUHU21623XXSP,2013-02-06 06:40:00,
2013-02-06 00:45:00,30.9,24.9,30.09,NW,315,0.0,2.0,78,0.00,,,0.00,WUHU21623XXSP,2013-02-06 06:45:00,
2013-02-06 00:50:00,30.9,24.5,30.09,NW,315,6.0,7.2,77,0.00,,,0.00,WUHU21623XXSP,2013-02-06 06:50:00,
2013-02-06 00:55:00,30.9,24.2,30.09,NW,315,0.0,7.2,76,0.00,,,0.00,WUHU21623XXSP,2013-02-06 06:55:00,
2013-02-06 01:00:00,30.9,24.2,30.10,NW,315,0.0,6.9,76,0.00,,,0.00,WUHU21623XXSP,2013-02-06 07:00:00,
2013-02-06 01:05:00,30.9,24.2,30.09,NW,315,2.7,6.9,76,0.00,,,0.00,WUHU21623XXSP,2013-02-06 07:05:00,
2013-02-06 01:10:00,30.9,24.2,30.09,WNW,292,0.0,2.7,76,0.00,,,0.00,WUHU21623XXSP,2013-02-06 07:10:00,
2013-02-06 01:15:00,30.9,24.2,30.09,NNW,337,0.0,2.7,76,0.00,,,0.00,WUHU21623XXSP,2013-02-06 07:15:00,
2013-02-06 01:20:00,30.9,24.2,30.10,NW,315,2.7,2.7,76,0.00,,,0.00,WUHU21623XXSP,2013-02-06 07:20:00,
2013-02-06 01:25:00,30.9,23.9,30.10,NNW,337,0.0,5.1,75,0.00,,,0.00,WUHU21623XXSP,2013-02-06 07:25:00,
2013-02-06 01:30:00,30.9,24.2,30.10,NW,315,8.1,8.1,76,0.00,,,0.00,WUHU21623XXSP,2013-02-06 07:30:00,
2013-02-06 01:35:00,30.7,24.0,30.10,NW,315,0.0,8.1,76,0.00,,,0.00,WUHU21623XXSP,2013-02-06 07:35:00,
2013-02-06 01:40:00,30.7,24.0,30.11,NW,315,0.0,0.0,76,0.00,,,0.00,WUHU21623XXSP,2013-02-06 07:40:00,
2013-02-06 01:45:00,30.7,24.0,30.11,NW,315,0.0,0.0,76,0.00,,,0.00,WUHU21623XXSP,2013-02-06 07:45:00,
2013-02-06 01:50:00,30.7,24.0,30.11,WNW,292,0.0,0.0,76,0.00,,,0.00,WUHU21623XXSP,2013-02-06 07:50:00,
2013-02-06 01:55:00,30.7,24.0,30.11,North,0,0.0,0.0,76,0.00,,,0.00,WUHU21623XXSP,2013-02-06 07:55:00,
2013-02-06 02:00:00,30.7,24.0,30.10,North,0,0.0,0.0,76,0.00,,,0.00,WUHU21623XXSP,2013-02-06 08:00:00,
2013-02-06 02:05:00,30.6,24.0,30.10,North,0,0.0,0.0,76,0.00,,,0.00,WUHU21623XXSP,2013-02-06 08:05:00,
2013-02-06 02:10:00,30.6,24.2,30.10,North,0,0.0,2.0,77,0.00,,,0.00,WUHU21623XXSP,2013-02-06 08:10:00,
2013-02-06 02:15:00,30.4,24.0,30.10,North,0,0.0,2.0,77,0.00,,,0.00,WUHU21623XXSP,2013-02-06 08:15:00,
2013-02-06 02:20:00,30.2,23.8,30.10,North,0,0.0,0.0,77,0.00,,,0.00,WUHU21623XXSP,2013-02-06 08:20:00,
2013-02-06 02:25:00,30.0,24.0,30.10,North,0,0.0,0.0,78,0.00,,,0.00,WUHU21623XXSP,2013-02-06 08:25:00,
2013-02-06 02:30:00,30.0,24.0,30.11,North,0,0.0,0.0,78,0.00,,,0.00,WUHU21623XXSP,2013-02-06 08:30:00,
2013-02-06 02:35:00,30.0,24.0,30.11,North,0,0.0,0.0,78,0.00,,,0.00,WUHU21623XXSP,2013-02-06 08:35:00,
2013-02-06 02:40:00,30.0,24.0,30.11,North,0,0.0,0.0,78,0.00,,,0.00,WUHU21623XXSP,2013-02-06 08:40:00,
2013-02-06 02:45:00,30.0,24.0,30.11,North,0,0.0,0.0,78,0.00,,,0.00,WUHU21623XXSP,2013-02-06 08:45:00,
2013-02-06 02:50:00,30.0,24.3,30.11,North,0,0.0,0.0,79,0.00,,,0.00,WUHU21623XXSP,2013-02-06 08:50:00,
2013-02-06 02:55:00,30.0,24.3,30.12,North,0,0.0,0.0,79,0.00,,,0.00,WUHU21623XXSP,2013-02-06 08:55:00,
2013-02-06 03:00:00,30.0,24.3,30.12,North,0,0.0,0.0,79,0.00,,,0.00,WUHU21623XXSP,2013-02-06 09:00:00,
2013-02-06 03:05:00,30.0,24.3,30.12,North,0,0.0,0.0,79,0.00,,,0.00,WUHU21623XXSP,2013-02-06 09:05:00,
2013-02-06 03:10:00,30.0,24.3,30.12,North,0,0.0,0.0,79,0.00,,,0.00,WUHU21623XXSP,2013-02-06 09:10:00,
2013-02-06 03:15:00,30.0,24.3,30.12,North,0,0.0,0.0,79,0.00,,,0.00,WUHU21623XXSP,2013-02-06 09:15:00,
2013-02-06 03:20:00,30.0,24.0,30.13,North,0,0.0,0.0,78,0.00,,,0.00,WUHU21623XXSP,2013-02-06 09:20:00,
2013-02-06 03:25:00,30.0,24.0,30.13,North,0,0.0,0.0,78,0.00,,,0.00,WUHU21623XXSP,2013-02-06 09:25:00,
2013-02-06 03:30:00,30.0,24.0,30.13,North,0,0.0,0.0,78,0.00,,,0.00,WUHU21623XXSP,2013-02-06 09:30:00,
2013-02-06 03:35:00,30.0,24.0,30.13,North,0,0.0,0.0,78,0.00,,,0.00,WUHU21623XXSP,2013-02-06 09:35:00,
2013-02-06 03:40:00,30.0,24.0,30.14,North,0,0.0,0.0,78,0.00,,,0.00,WUHU21623XXSP,2013-02-06 09:40:00,
2013-02-06 03:45:00,29.8,23.8,30.14,North,0,0.0,0.0,78,0.00,,,0.00,WUHU21623XXSP,2013-02-06 09:45:00,
2013-02-06 03:50:00,29.8,23.1,30.14,NNW,337,0.0,0.0,76,0.00,,,0.00,WUHU21623XXSP,2013-02-06 09:50:00,
2013-02-06 03:55:00,30.0,23.3,30.14,NNW,337,0.0,0.0,76,0.00,,,0.00,WUHU21623XXSP,2013-02-06 09:55:00,
2013-02-06 04:00:00,30.0,23.3,30.14,NNW,337,0.0,0.0,76,0.00,,,0.00,WUHU21623XXSP,2013-02-06 10:00:00,
2013-02-06 04:06:00,30.0,23.0,30.14,NNW,337,0.0,0.0,75,0.00,,,0.00,WUHU21623XXSP,2013-02-06 10:06:00,
2013-02-06 04:11:00,30.0,23.0,30.14,NNW,337,0.0,0.0,75,0.00,,,0.00,WUHU21623XXSP,2013-02-06 10:11:00,
2013-02-06 04:16:00,30.0,22.8,30.14,West,270,0.0,0.0,75,0.00,,,0.00,WUHU21623XXSP,2013-02-06 10:16:00,
2013-02-06 04:21:00,30.0,23.0,30.15,West,270,0.0,0.0,75,0.00,,,0.00,WUHU21623XXSP,2013-02-06 10:21:00,
2013-02-06 04:26:00,29.8,22.8,30.15,West,270,0.0,0.0,75,0.00,,,0.00,WUHU21623XXSP,2013-02-06 10:26:00,
2013-02-06 04:31:00,29.8,22.8,30.15,West,270,0.0,0.0,74,0.00,,,0.00,WUHU21623XXSP,2013-02-06 10:31:00,
2013-02-06 04:36:00,29.8,22.5,30.15,West,270,0.0,0.0,74,0.00,,,0.00,WUHU21623XXSP,2013-02-06 10:36:00,
2013-02-06 04:41:00,29.8,22.5,30.15,NNW,337,0.0,0.0,74,0.00,,,0.00,WUHU21623XXSP,2013-02-06 10:41:00,
2013-02-06 04:46:00,29.7,22.7,30.16,North,0,2.9,2.9,75,0.00,,,0.00,WUHU21623XXSP,2013-02-06 10:46:00,
2013-02-06 04:51:00,29.3,22.5,30.16,North,0,0.0,2.9,75,0.00,,,0.00,WUHU21623XXSP,2013-02-06 10:51:00,
2013-02-06 04:56:00,29.1,22.5,30.16,North,0,0.0,2.9,76,0.00,,,0.00,WUHU21623XXSP,2013-02-06 10:56:00,
2013-02-06 05:01:00,28.9,22.3,30.17,North,0,0.0,0.0,76,0.00,,,0.00,WUHU21623XXSP,2013-02-06 11:01:00,
2013-02-06 05:06:00,28.8,22.6,30.17,North,0,0.0,0.0,77,0.00,,,0.00,WUHU21623XXSP,2013-02-06 11:06:00,
2013-02-06 05:11:00,28.8,22.4,30.16,North,0,0.0,0.0,77,0.00,,,0.00,WUHU21623XXSP,2013-02-06 11:11:00,
2013-02-06 05:16:00,28.2,22.2,30.17,North,0,0.0,0.0,78,0.00,,,0.00,WUHU21623XXSP,2013-02-06 11:16:00,
2013-02-06 05:21:00,28.0,22.0,30.16,North,0,0.0,0.0,78,0.00,,,0.00,WUHU21623XXSP,2013-02-06 11:21:00,
2013-02-06 05:26:00,28.0,22.0,30.16,North,0,0.0,0.0,78,0.00,,,0.00,WUHU21623XXSP,2013-02-06 11:26:00,
2013-02-06 05:31:00,27.7,21.7,30.16,North,0,0.0,0.0,78,0.00,,,0.00,WUHU21623XXSP,2013-02-06 11:31:00,
2013-02-06 05:38:00,27.3,21.6,30.16,NNE,22,0.0,0.0,79,0.00,,,0.00,WUHU21623XXSP,2013-02-06 11:38:00,
2013-02-06 05:43:00,27.1,21.4,30.17,NNE,22,0.0,0.0,79,0.00,,,0.00,WUHU21623XXSP,2013-02-06 11:43:00,
2013-02-06 05:48:00,27.0,21.3,30.17,NNE,22,0.0,0.0,79,0.00,,,0.00,WUHU21623XXSP,2013-02-06 11:48:00,
2013-02-06 05:53:00,26.8,21.1,30.17,NNE,22,0.0,0.0,79,0.00,,,0.00,WUHU21623XXSP,2013-02-06 11:53:00,
2013-02-06 05:59:00,26.4,21.0,30.18,NNE,22,0.0,0.0,80,0.00,,,0.00,WUHU21623XXSP,2013-02-06 11:59:00,
2013-02-06 06:04:00,26.4,21.0,30.17,NNE,22,0.0,0.0,80,0.00,,,0.00,WUHU21623XXSP,2013-02-06 12:04:00,
2013-02-06 06:10:00,26.1,20.7,30.18,NNE,22,0.0,0.0,80,0.00,,,0.00,WUHU21623XXSP,2013-02-06 12:10:00,
2013-02-06 06:15:00,25.7,20.4,30.18,NNE,22,0.0,0.0,80,0.00,,,0.00,WUHU21623XXSP,2013-02-06 12:15:00,
2013-02-06 06:20:00,25.5,20.2,30.18,NNE,22,0.0,0.0,80,0.00,,,0.00,WUHU21623XXSP,2013-02-06 12:20:00,
2013-02-06 06:25:00,25.3,20.3,30.18,NNE,22,0.0,0.0,81,0.00,,,0.00,WUHU21623XXSP,2013-02-06 12:25:00,
2013-02-06 06:30:00,25.3,20.3,30.18,NNE,22,0.0,0.0,81,0.00,,,0.00,WUHU21623XXSP,2013-02-06 12:30:00,
2013-02-06 06:35:00,25.0,20.3,30.18,NNE,22,0.0,0.0,81,0.00,,,0.00,WUHU21623XXSP,2013-02-06 12:35:00,
2013-02-06 06:40:00,24.6,19.7,30.18,NNE,22,0.0,0.0,81,0.00,,,0.00,WUHU21623XXSP,2013-02-06 12:40:00,
2013-02-06 06:45:00,24.6,19.9,30.18,NNE,22,0.0,0.0,82,0.00,,,0.00,WUHU21623XXSP,2013-02-06 12:45:00,
2013-02-06 06:50:00,24.6,19.9,30.18,NNE,22,0.0,0.0,82,0.00,,,0.00,WUHU21623XXSP,2013-02-06 12:50:00,
2013-02-06 06:55:00,24.4,19.8,30.19,NNE,22,0.0,0.0,82,0.00,,,0.00,WUHU21623XXSP,2013-02-06 12:55:00,
2013-02-06 07:00:00,24.4,19.4,30.19,NNE,22,0.0,0.0,82,0.00,,,0.00,WUHU21623XXSP,2013-02-06 13:00:00,
2013-02-06 07:05:00,24.1,19.4,30.19,NNE,22,0.0,0.0,82,0.00,,,0.00,WUHU21623XXSP,2013-02-06 13:05:00,
2013-02-06 07:10:00,24.1,19.4,30.19,NNE,22,0.0,0.0,82,0.00,,,0.00,WUHU21623XXSP,2013-02-06 13:10:00,
2013-02-06 07:15:00,23.7,19.0,30.19,NNE,22,0.0,0.0,82,0.00,,,0.00,WUHU21623XXSP,2013-02-06 13:15:00,
2013-02-06 07:20:00,23.5,18.9,30.19,NNE,22,0.0,0.0,82,0.00,,,0.00,WUHU21623XXSP,2013-02-06 13:20:00,
2013-02-06 07:25:00,23.5,18.9,30.19,NNE,22,0.0,0.0,83,0.00,,,0.00,WUHU21623XXSP,2013-02-06 13:25:00,
2013-02-06 07:30:00,23.5,19.1,30.19,NNE,22,0.0,0.0,83,0.00,,,0.00,WUHU21623XXSP,2013-02-06 13:30:00,
2013-02-06 07:35:00,23.7,19.3,30.19,NNE,22,0.0,0.0,83,0.00,,,0.00,WUHU21623XXSP,2013-02-06 13:35:00,
2013-02-06 07:40:00,23.9,19.5,30.19,NNE,22,0.0,0.0,83,0.00,,,0.00,WUHU21623XXSP,2013-02-06 13:40:00,
2013-02-06 07:45:00,24.1,19.7,30.19,NNE,22,0.0,0.0,83,0.00,,,0.00,WUHU21623XXSP,2013-02-06 13:45:00,
2013-02-06 07:52:00,24.4,20.0,30.20,NNE,22,0.0,0.0,83,0.00,,,0.00,WUHU21623XXSP,2013-02-06 13:52:00,
2013-02-06 07:57:00,24.6,20.2,30.19,NNE,22,0.0,0.0,83,0.00,,,0.00,WUHU21623XXSP,2013-02-06 13:57:00,
2013-02-06 08:02:00,25.0,20.6,30.20,NNE,22,0.0,0.0,83,0.00,,,0.00,WUHU21623XXSP,2013-02-06 14:02:00,
2013-02-06 08:07:00,25.3,20.9,30.20,NNE,22,0.0,0.0,83,0.00,,,0.00,WUHU21623XXSP,2013-02-06 14:07:00,
2013-02-06 08:12:00,25.7,20.8,30.20,NNE,22,0.0,0.0,82,0.00,,,0.00,WUHU21623XXSP,2013-02-06 14:12:00,
2013-02-06 08:17:00,26.2,21.4,30.20,NNE,22,0.0,0.0,82,0.00,,,0.00,WUHU21623XXSP,2013-02-06 14:17:00,
2013-02-06 08:22:00,26.6,21.8,30.20,NNE,22,0.0,0.0,82,0.00,,,0.00,WUHU21623XXSP,2013-02-06 14:22:00,
2013-02-06 08:27:00,27.1,22.1,30.21,NNE,22,0.0,0.0,82,0.00,,,0.00,WUHU21623XXSP,2013-02-06 14:27:00,
2013-02-06 08:32:00,27.5,22.2,30.21,NNE,22,0.0,0.0,81,0.00,,,0.00,WUHU21623XXSP,2013-02-06 14:32:00,
2013-02-06 08:37:00,27.9,22.7,30.21,NNE,22,0.0,0.0,81,0.00,,,0.00,WUHU21623XXSP,2013-02-06 14:37:00,
2013-02-06 08:42:00,28.6,23.1,30.21,NNE,22,0.0,0.0,81,0.00,,,0.00,WUHU21623XXSP,2013-02-06 14:42:00,
2013-02-06 08:47:00,28.9,23.2,30.21,NNE,22,0.0,0.0,80,0.00,,,0.00,WUHU21623XXSP,2013-02-06 14:47:00,
2013-02-06 08:52:00,28.9,23.7,30.21,NNE,22,0.0,0.0,80,0.00,,,0.00,WUHU21623XXSP,2013-02-06 14:52:00,
2013-02-06 08:57:00,29.5,23.9,30.21,NNE,22,0.0,0.0,80,0.00,,,0.00,WUHU21623XXSP,2013-02-06 14:57:00,
2013-02-06 09:02:00,30.0,24.3,30.21,NNE,22,0.0,0.0,79,0.00,,,0.00,WUHU21623XXSP,2013-02-06 15:02:00,
2013-02-06 09:07:00,30.4,24.7,30.21,SE,135,0.0,0.0,79,0.00,,,0.00,WUHU21623XXSP,2013-02-06 15:07:00,
2013-02-06 09:12:00,30.7,25.0,30.21,SE,135,0.0,0.0,79,0.00,,,0.00,WUHU21623XXSP,2013-02-06 15:12:00,
2013-02-06 09:17:00,31.1,25.1,30.21,SE,135,0.0,0.0,78,0.00,,,0.00,WUHU21623XXSP,2013-02-06 15:17:00,
2013-02-06 09:22:00,31.8,25.6,30.21,SE,135,1.3,1.3,78,0.00,,,0.00,WUHU21623XXSP,2013-02-06 15:22:00,
2013-02-06 09:27:00,32.2,25.8,30.21,SE,135,0.0,1.3,77,0.00,,,0.00,WUHU21623XXSP,2013-02-06 15:27:00,
2013-02-06 09:32:00,32.4,25.6,30.20,SSE,157,3.4,3.4,76,0.00,,,0.00,WUHU21623XXSP,2013-02-06 15:32:00,
2013-02-06 09:37:00,32.5,25.8,30.20,SSE,157,1.1,6.0,75,0.00,,,0.00,WUHU21623XXSP,2013-02-06 15:37:00,
2013-02-06 09:43:00,32.7,25.6,30.21,SE,135,2.5,5.6,75,0.00,,,0.00,WUHU21623XXSP,2013-02-06 15:43:00,
2013-02-06 09:48:00,33.1,25.6,30.21,SSE,157,0.0,5.6,74,0.00,,,0.00,WUHU21623XXSP,2013-02-06 15:48:00,
2013-02-06 09:53:00,33.6,26.0,30.21,SSE,157,3.4,3.4,73,0.00,,,0.00,WUHU21623XXSP,2013-02-06 15:53:00,
2013-02-06 09:58:00,33.8,25.8,30.22,SSE,157,0.0,3.4,73,0.00,,,0.00,WUHU21623XXSP,2013-02-06 15:58:00,
2013-02-06 10:03:00,34.3,26.3,30.22,SSE,157,6.0,6.0,72,0.00,,,0.00,WUHU21623XXSP,2013-02-06 16:03:00,
2013-02-06 10:08:00,34.3,26.2,30.22,South,180,6.3,6.3,72,0.00,,,0.00,WUHU21623XXSP,2013-02-06 16:08:00,
2013-02-06 10:13:00,34.7,26.2,30.22,SSE,157,6.5,6.5,71,0.00,,,0.00,WUHU21623XXSP,2013-02-06 16:13:00,
2013-02-06 10:18:00,34.9,26.4,30.22,SSE,157,0.0,7.2,71,0.00,,,0.00,WUHU21623XXSP,2013-02-06 16:18:00,
2013-02-06 10:23:00,34.9,26.4,30.22,SSE,157,2.7,7.2,71,0.00,,,0.00,WUHU21623XXSP,2013-02-06 16:23:00,
2013-02-06 10:28:00,35.2,26.7,30.23,SE,135,4.3,4.3,71,0.00,,,0.00,WUHU21623XXSP,2013-02-06 16:28:00,
2013-02-06 10:33:00,35.6,26.8,30.24,South,180,9.8,9.8,70,0.00,,,0.00,WUHU21623XXSP,2013-02-06 16:33:00,
2013-02-06 10:38:00,35.4,26.6,30.23,SSE,157,4.7,9.8,70,0.00,,,0.00,WUHU21623XXSP,2013-02-06 16:38:00,
2013-02-06 10:43:00,35.4,26.6,30.22,SSE,157,1.1,8.3,70,0.00,,,0.00,WUHU21623XXSP,2013-02-06 16:43:00,
2013-02-06 10:48:00,35.8,26.8,30.23,SSE,157,0.0,8.3,70,0.00,,,0.00,WUHU21623XXSP,2013-02-06 16:48:00,
2013-02-06 10:54:00,36.0,27.1,30.23,SSE,157,0.0,9.2,70,0.00,,,0.00,WUHU21623XXSP,2013-02-06 16:54:00,
2013-02-06 10:59:00,36.3,27.5,30.22,SE,135,10.1,10.1,70,0.00,,,0.00,WUHU21623XXSP,2013-02-06 16:59:00,
2013-02-06 11:04:00,36.3,27.1,30.22,SSE,157,10.3,10.3,69,0.00,,,0.00,WUHU21623XXSP,2013-02-06 17:04:00,
2013-02-06 11:09:00,36.3,27.5,30.21,SSE,157,4.3,10.3,70,0.00,,,0.00,WUHU21623XXSP,2013-02-06 17:09:00,
2013-02-06 11:14:00,36.5,27.7,30.21,SSE,157,0.0,4.9,70,0.00,,,0.00,WUHU21623XXSP,2013-02-06 17:14:00,
2013-02-06 11:19:00,36.7,27.9,30.20,SSE,157,0.0,4.9,70,0.00,,,0.00,WUHU21623XXSP,2013-02-06 17:19:00,
2013-02-06 11:24:00,36.9,27.7,30.20,SSE,157,10.5,10.5,69,0.00,,,0.00,WUHU21623XXSP,2013-02-06 17:24:00,
2013-02-06 11:29:00,37.0,27.8,30.20,SE,135,7.6,10.5,69,0.00,,,0.00,WUHU21623XXSP,2013-02-06 17:29:00,
2013-02-06 11:34:00,37.2,28.2,30.20,SSE,157,0.0,9.4,70,0.00,,,0.00,WUHU21623XXSP,2013-02-06 17:34:00,
2013-02-06 11:40:00,37.2,28.0,30.20,SSE,157,6.5,8.5,69,0.00,,,0.00,WUHU21623XXSP,2013-02-06 17:40:00,
2013-02-06 11:45:00,37.4,28.2,30.20,SSE,157,3.4,8.5,69,0.00,,,0.00,WUHU21623XXSP,2013-02-06 17:45:00,
2013-02-06 11:50:00,37.4,28.2,30.20,SSE,157,6.7,8.5,69,0.00,,,0.00,WUHU21623XXSP,2013-02-06 17:50:00,
2013-02-06 11:55:00,37.9,28.7,30.20,South,180,6.3,8.7,69,0.00,,,0.00,WUHU21623XXSP,2013-02-06 17:55:00,
2013-02-06 12:00:00,37.9,28.7,30.20,South,180,6.3,8.7,69,0.00,,,0.00,WUHU21623XXSP,2013-02-06 18:00:00,
2013-02-06 12:06:00,37.9,28.7,30.21,WSW,247,0.0,6.3,69,0.00,,,0.00,WUHU21623XXSP,2013-02-06 18:06:00,
2013-02-06 12:11:00,38.1,28.7,30.20,SW,225,0.0,3.1,69,0.00,,,0.00,WUHU21623XXSP,2013-02-06 18:11:00,
2013-02-06 12:16:00,38.3,29.0,30.20,SSE,157,0.0,3.1,69,0.00,,,0.00,WUHU21623XXSP,2013-02-06 18:16:00,
2013-02-06 12:21:00,38.3,29.0,30.20,SSE,157,0.0,0.0,68,0.00,,,0.00,WUHU21623XXSP,2013-02-06 18:21:00,
2013-02-06 12:26:00,38.8,29.1,30.20,SSE,157,3.6,3.6,68,0.00,,,0.00,WUHU21623XXSP,2013-02-06 18:26:00,
2013-02-06 12:31:00,39.0,29.1,30.21,SSE,157,7.2,7.2,67,0.00,,,0.00,WUHU21623XXSP,2013-02-06 18:31:00,
2013-02-06 12:36:00,38.8,28.7,30.21,SW,225,0.0,7.2,67,0.00,,,0.00,WUHU21623XXSP,2013-02-06 18:36:00,
2013-02-06 12:41:00,39.0,28.9,30.21,SSE,157,4.7,4.7,67,0.00,,,0.00,WUHU21623XXSP,2013-02-06 18:41:00,
2013-02-06 12:46:00,39.4,29.2,30.21,WSW,247,0.0,7.8,67,0.00,,,0.00,WUHU21623XXSP,2013-02-06 18:46:00,
2013-02-06 12:51:00,39.4,29.1,30.20,West,270,5.8,7.8,67,0.00,,,0.00,WUHU21623XXSP,2013-02-06 18:51:00,
2013-02-06 12:56:00,39.4,28.9,30.20,SW,225,5.1,5.8,67,0.00,,,0.00,WUHU21623XXSP,2013-02-06 18:56:00,
2013-02-06 13:01:00,39.4,29.2,30.20,SSW,202,0.0,5.1,67,0.00,,,0.00,WUHU21623XXSP,2013-02-06 19:01:00,
2013-02-06 13:06:00,39.7,29.2,30.19,SSE,157,0.0,5.6,66,0.00,,,0.00,WUHU21623XXSP,2013-02-06 19:06:00,
2013-02-06 13:11:00,39.7,29.2,30.19,South,180,0.0,5.6,66,0.00,,,0.00,WUHU21623XXSP,2013-02-06 19:11:00,
2013-02-06 13:16:00,39.7,29.2,30.19,SSE,157,3.8,3.8,66,0.00,,,0.00,WUHU21623XXSP,2013-02-06 19:16:00,
2013-02-06 13:21:00,39.9,29.4,30.19,South,180,0.0,3.8,66,0.00,,,0.00,WUHU21623XXSP,2013-02-06 19:21:00,
2013-02-06 13:26:00,39.9,29.4,30.19,SSW,202,8.1,8.1,65,0.00,,,0.00,WUHU21623XXSP,2013-02-06 19:26:00,
2013-02-06 13:31:00,39.9,29.0,30.19,SSW,202,8.1,8.1,65,0.00,,,0.00,WUHU21623XXSP,2013-02-06 19:31:00,
2013-02-06 13:36:00,39.9,29.0,30.19,SSE,157,6.7,8.1,65,0.00,,,0.00,WUHU21623XXSP,2013-02-06 19:36:00,
2013-02-06 13:41:00,40.1,29.4,30.18,SSE,157,0.4,6.7,66,0.00,,,0.00,WUHU21623XXSP,2013-02-06 19:41:00,
2013-02-06 13:46:00,40.1,29.6,30.18,SE,135,0.0,6.7,66,0.00,,,0.00,WUHU21623XXSP,2013-02-06 19:46:00,
2013-02-06 13:51:00,40.3,29.8,30.18,SE,135,0.0,2.7,66,0.00,,,0.00,WUHU21623XXSP,2013-02-06 19:51:00,
2013-02-06 13:57:00,40.3,29.8,30.18,South,180,7.8,7.8,66,0.00,,,0.00,WUHU21623XXSP,2013-02-06 19:57:00,
2013-02-06 14:02:00,40.6,29.8,30.18,SSE,157,7.4,7.8,66,0.00,,,0.00,WUHU21623XXSP,2013-02-06 20:02:00,
2013-02-06 14:09:00,40.5,29.9,30.18,SSW,202,0.0,7.4,66,0.00,,,0.00,WUHU21623XXSP,2013-02-06 20:09:00,
2013-02-06 14:14:00,40.3,29.8,30.18,South,180,7.8,7.8,66,0.00,,,0.00,WUHU21623XXSP,2013-02-06 20:14:00,
2013-02-06 14:19:00,40.3,29.8,30.18,SSE,157,2.2,7.8,66,0.00,,,0.00,WUHU21623XXSP,2013-02-06 20:19:00,
2013-02-06 14:24:00,40.5,29.9,30.18,WSW,247,8.9,8.9,66,0.00,,,0.00,WUHU21623XXSP,2013-02-06 20:24:00,
2013-02-06 14:29:00,40.6,30.5,30.18,WSW,247,8.5,8.9,67,0.00,,,0.00,WUHU21623XXSP,2013-02-06 20:29:00,
2013-02-06 14:34:00,40.8,30.5,30.18,WSW,247,8.5,8.5,67,0.00,,,0.00,WUHU21623XXSP,2013-02-06 20:34:00,
2013-02-06 14:40:00,40.6,30.3,30.18,SSE,157,7.4,10.7,66,0.00,,,0.00,WUHU21623XXSP,2013-02-06 20:40:00,
2013-02-06 14:45:00,40.6,30.5,30.18,WSW,247,8.3,8.3,67,0.00,,,0.00,WUHU21623XXSP,2013-02-06 20:45:00,
2013-02-06 14:50:00,40.6,30.7,30.17,SSE,157,4.9,8.3,67,0.00,,,0.00,WUHU21623XXSP,2013-02-06 20:50:00,
2013-02-06 14:55:00,40.6,30.5,30.17,WSW,247,8.3,8.3,67,0.00,,,0.00,WUHU21623XXSP,2013-02-06 20:55:00,
2013-02-06 15:00:00,40.6,30.9,30.17,WSW,247,4.5,8.3,68,0.00,,,0.00,WUHU21623XXSP,2013-02-06 21:00:00,
2013-02-06 15:05:00,40.3,30.1,30.17,SSE,157,8.1,8.1,67,0.00,,,0.00,WUHU21623XXSP,2013-02-06 21:05:00,
2013-02-06 15:10:00,40.3,30.1,30.17,WSW,247,7.2,8.1,67,0.00,,,0.00,WUHU21623XXSP,2013-02-06 21:10:00,
2013-02-06 15:15:00,40.1,30.0,30.16,WSW,247,7.4,8.1,67,0.00,,,0.00,WUHU21623XXSP,2013-02-06 21:15:00,
2013-02-06 15:20:00,39.9,30.2,30.16,WSW,247,8.7,8.7,68,0.00,,,0.00,WUHU21623XXSP,2013-02-06 21:20:00,
2013-02-06 15:25:00,39.7,30.0,30.17,SSE,157,0.0,8.7,68,0.00,,,0.00,WUHU21623XXSP,2013-02-06 21:25:00,
2013-02-06 15:30:00,39.7,30.0,30.17,South,180,5.8,5.8,68,0.00,,,0.00,WUHU21623XXSP,2013-02-06 21:30:00,
2013-02-06 15:35:00,39.9,30.5,30.18,SSE,157,6.9,6.9,69,0.00,,,0.00,WUHU21623XXSP,2013-02-06 21:35:00,
2013-02-06 15:40:00,39.4,30.0,30.18,SSW,202,7.2,7.2,69,0.00,,,0.00,WUHU21623XXSP,2013-02-06 21:40:00,
2013-02-06 15:45:00,38.8,29.7,30.18,SSW,202,7.2,7.2,69,0.00,,,0.00,WUHU21623XXSP,2013-02-06 21:45:00,
2013-02-06 15:50:00,38.8,29.5,30.17,SSW,202,6.5,7.2,69,0.00,,,0.00,WUHU21623XXSP,2013-02-06 21:50:00,
2013-02-06 15:55:00,38.8,29.9,30.17,SSW,202,7.6,9.2,70,0.00,,,0.00,WUHU21623XXSP,2013-02-06 21:55:00,
2013-02-06 16:00:00,38.5,29.6,30.17,SSE,157,9.8,9.8,70,0.00,,,0.00,WUHU21623XXSP,2013-02-06 22:00:00,
2013-02-06 16:05:00,38.3,29.7,30.17,SSE,157,4.0,9.8,71,0.00,,,0.00,WUHU21623XXSP,2013-02-06 22:05:00,
2013-02-06 16:10:00,38.3,29.7,30.17,South,180,0.0,9.8,71,0.00,,,0.00,WUHU21623XXSP,2013-02-06 22:10:00,
2013-02-06 16:15:00,38.1,29.6,30.16,SSE,157,1.6,7.8,71,0.00,,,0.00,WUHU21623XXSP,2013-02-06 22:15:00,
2013-02-06 16:20:00,37.9,29.4,30.16,SSE,157,0.0,4.3,72,0.00,,,0.00,WUHU21623XXSP,2013-02-06 22:20:00,
2013-02-06 16:25:00,37.8,29.6,30.16,SSE,157,0.0,3.8,72,0.00,,,0.00,WUHU21623XXSP,2013-02-06 22:25:00,
2013-02-06 16:30:00,37.4,29.6,30.15,SSE,157,1.3,1.3,73,0.00,,,0.00,WUHU21623XXSP,2013-02-06 22:30:00,
2013-02-06 16:35:00,37.2,29.4,30.16,SSE,157,0.0,4.9,73,0.00,,,0.00,WUHU21623XXSP,2013-02-06 22:35:00,
2013-02-06 16:40:00,37.2,29.4,30.16,SSE,157,0.0,4.9,73,0.00,,,0.00,WUHU21623XXSP,2013-02-06 22:40:00,
2013-02-06 16:45:00,37.0,29.2,30.15,SSE,157,0.0,0.0,74,0.00,,,0.00,WUHU21623XXSP,2013-02-06 22:45:00,
2013-02-06 16:50:00,36.7,29.2,30.16,SE,135,0.0,0.0,74,0.00,,,0.00,WUHU21623XXSP,2013-02-06 22:50:00,
2013-02-06 16:55:00,36.5,29.5,30.15,SE,135,0.0,0.0,75,0.00,,,0.00,WUHU21623XXSP,2013-02-06 22:55:00,
2013-02-06 17:00:00,36.3,29.1,30.16,SE,135,0.0,0.0,75,0.00,,,0.00,WUHU21623XXSP,2013-02-06 23:00:00,
2013-02-06 17:05:00,36.1,29.3,30.16,SSE,157,0.0,0.0,76,0.00,,,0.00,WUHU21623XXSP,2013-02-06 23:05:00,
2013-02-06 17:11:00,36.1,29.3,30.16,SSE,157,0.0,1.1,76,0.00,,,0.00,WUHU21623XXSP,2013-02-06 23:11:00,
2013-02-06 17:16:00,36.0,29.4,30.16,SSE,157,0.0,1.1,77,0.00,,,0.00,WUHU21623XXSP,2013-02-06 23:16:00,
2013-02-06 17:21:00,35.8,29.2,30.16,SE,135,3.1,3.1,77,0.00,,,0.00,WUHU21623XXSP,2013-02-06 23:21:00,
2013-02-06 17:26:00,35.8,29.2,30.16,SSE,157,0.0,3.1,77,0.00,,,0.00,WUHU21623XXSP,2013-02-06 23:26:00,
2013-02-06 17:31:00,35.8,29.2,30.15,SSE,157,0.0,5.6,77,0.00,,,0.00,WUHU21623XXSP,2013-02-06 23:31:00,
2013-02-06 17:36:00,35.4,29.2,30.15,SSE,157,0.0,5.6,78,0.00,,,0.00,WUHU21623XXSP,2013-02-06 23:36:00,
2013-02-06 17:41:00,35.4,29.2,30.14,SE,135,0.0,2.9,78,0.00,,,0.00,WUHU21623XXSP,2013-02-06 23:41:00,
2013-02-06 17:46:00,35.2,29.0,30.15,SE,135,0.0,0.0,78,0.00,,,0.00,WUHU21623XXSP,2013-02-06 23:46:00,
2013-02-06 17:51:00,35.2,29.3,30.15,SSE,157,0.0,0.0,79,0.00,,,0.00,WUHU21623XXSP,2013-02-06 23:51:00,
2013-02-06 17:56:00,34.9,29.0,30.15,SE,135,0.0,0.0,79,0.00,,,0.00,WUHU21623XXSP,2013-02-06 23:56:00,
2013-02-06 18:01:00,34.9,29.0,30.15,SE,135,0.0,0.0,79,0.00,,,0.00,WUHU21623XXSP,2013-02-07 00:01:00,
2013-02-06 18:06:00,34.9,29.0,30.15,SE,135,0.0,0.0,79,0.00,,,0.00,WUHU21623XXSP,2013-02-07 00:06:00,
2013-02-06 18:11:00,34.9,29.3,30.15,SE,135,0.0,0.0,80,0.00,,,0.00,WUHU21623XXSP,2013-02-07 00:11:00,
2013-02-06 18:16:00,34.9,29.3,30.14,SSE,157,0.0,1.3,80,0.00,,,0.00,WUHU21623XXSP,2013-02-07 00:16:00,
2013-02-06 18:21:00,34.7,29.1,30.14,SSE,157,2.7,2.7,80,0.00,,,0.00,WUHU21623XXSP,2013-02-07 00:21:00,
2013-02-06 18:26:00,34.5,28.9,30.14,South,180,1.1,2.7,80,0.00,,,0.00,WUHU21623XXSP,2013-02-07 00:26:00,
2013-02-06 18:31:00,34.5,28.9,30.14,SE,135,0.0,4.5,80,0.00,,,0.00,WUHU21623XXSP,2013-02-07 00:31:00,
2013-02-06 18:36:00,34.3,29.0,30.14,SE,135,0.0,4.5,81,0.00,,,0.00,WUHU21623XXSP,2013-02-07 00:36:00,
2013-02-06 18:41:00,34.3,29.0,30.14,SE,135,0.0,5.1,81,0.00,,,0.00,WUHU21623XXSP,2013-02-07 00:41:00,
2013-02-06 18:46:00,34.3,29.0,30.14,SSE,157,5.6,5.6,81,0.00,,,0.00,WUHU21623XXSP,2013-02-07 00:46:00,
2013-02-06 18:51:00,34.5,29.2,30.14,SSE,157,8.5,8.5,81,0.00,,,0.00,WUHU21623XXSP,2013-02-07 00:51:00,
2013-02-06 18:56:00,34.5,29.2,30.14,SE,135,0.0,8.5,81,0.00,,,0.00,WUHU21623XXSP,2013-02-07 00:56:00,
2013-02-06 19:01:00,34.3,29.0,30.15,SSE,157,1.6,3.6,81,0.00,,,0.00,WUHU21623XXSP,2013-02-07 01:01:00,
2013-02-06 19:06:00,34.3,29.0,30.15,SSE,157,6.5,6.5,81,0.00,,,0.00,WUHU21623XXSP,2013-02-07 01:06:00,
2013-02-06 19:11:00,34.3,29.0,30.15,SE,135,4.7,6.5,81,0.00,,,0.00,WUHU21623XXSP,2013-02-07 01:11:00,
2013-02-06 19:16:00,34.3,28.8,30.15,SSE,157,2.2,4.7,80,0.00,,,0.00,WUHU21623XXSP,2013-02-07 01:16:00,
2013-02-06 19:21:00,34.3,28.8,30.15,SSE,157,5.1,6.5,80,0.00,,,0.00,WUHU21623XXSP,2013-02-07 01:21:00,
2013-02-06 19:26:00,34.3,28.8,30.14,SSE,157,3.1,6.5,80,0.00,,,0.00,WUHU21623XXSP,2013-02-07 01:26:00,
2013-02-06 19:32:00,34.3,28.8,30.14,SSE,157,6.9,6.9,80,0.00,,,0.00,WUHU21623XXSP,2013-02-07 01:32:00,
2013-02-06 19:37:00,34.3,28.8,30.14,SE,135,2.2,8.3,80,0.00,,,0.00,WUHU21623XXSP,2013-02-07 01:37:00,
2013-02-06 19:42:00,34.3,28.8,30.14,SE,135,1.6,8.3,80,0.00,,,0.00,WUHU21623XXSP,2013-02-07 01:42:00,
2013-02-06 19:47:00,34.3,28.8,30.14,SE,135,6.7,6.9,80,0.00,,,0.00,WUHU21623XXSP,2013-02-07 01:47:00,
2013-02-06 19:52:00,34.3,28.8,30.13,SSE,157,4.9,7.4,80,0.00,,,0.00,WUHU21623XXSP,2013-02-07 01:52:00,
2013-02-06 19:57:00,34.3,28.8,30.13,SE,135,7.6,7.6,80,0.00,,,0.00,WUHU21623XXSP,2013-02-07 01:57:00,
2013-02-06 20:02:00,34.3,29.0,30.13,SE,135,6.5,7.6,81,0.00,,,0.00,WUHU21623XXSP,2013-02-07 02:02:00,
2013-02-06 20:07:00,34.3,29.0,30.13,SE,135,0.0,6.9,81,0.00,,,0.00,WUHU21623XXSP,2013-02-07 02:07:00,
2013-02-06 20:12:00,34.3,29.0,30.12,SSE,157,6.9,6.9,81,0.00,,,0.00,WUHU21623XXSP,2013-02-07 02:12:00,
2013-02-06 20:17:00,34.3,29.0,30.12,SE,135,5.8,6.9,81,0.00,,,0.00,WUHU21623XXSP,2013-02-07 02:17:00,
2013-02-06 20:22:00,34.2,28.9,30.11,SE,135,7.6,7.6,81,0.00,,,0.00,WUHU21623XXSP,2013-02-07 02:22:00,
2013-02-06 20:27:00,34.2,28.9,30.11,SE,135,7.6,8.1,81,0.00,,,0.00,WUHU21623XXSP,2013-02-07 02:27:00,
2013-02-06 20:32:00,34.0,28.7,30.11,SSE,157,12.1,12.1,81,0.00,,,0.00,WUHU21623XXSP,2013-02-07 02:32:00,
2013-02-06 20:37:00,34.0,29.0,30.11,SSE,157,8.3,12.1,82,0.00,,,0.00,WUHU21623XXSP,2013-02-07 02:37:00,
2013-02-06 20:42:00,34.0,29.0,30.11,SSE,157,9.4,9.4,82,0.00,,,0.00,WUHU21623XXSP,2013-02-07 02:42:00,
2013-02-06 20:47:00,34.0,29.0,30.11,SE,135,6.7,9.4,82,0.00,,,0.00,WUHU21623XXSP,2013-02-07 02:47:00,
2013-02-06 20:52:00,33.8,28.8,30.11,SE,135,4.3,6.7,82,0.00,,,0.00,WUHU21623XXSP,2013-02-07 02:52:00,
2013-02-06 20:57:00,33.8,28.8,30.11,SE,135,6.5,6.7,82,0.00,,,0.00,WUHU21623XXSP,2013-02-07 02:57:00,
2013-02-06 21:02:00,33.8,28.8,30.12,SSE,157,6.9,10.1,82,0.00,,,0.00,WUHU21623XXSP,2013-02-07 03:02:00,
2013-02-06 21:07:00,33.8,28.8,30.11,SSE,157,7.8,10.1,82,0.00,,,0.00,WUHU21623XXSP,2013-02-07 03:07:00,
2013-02-06 21:12:00,33.8,28.8,30.12,SSE,157,6.5,8.3,82,0.00,,,0.00,WUHU21623XXSP,2013-02-07 03:12:00,
2013-02-06 21:17:00,33.6,28.6,30.11,South,180,6.7,11.0,82,0.00,,,0.00,WUHU21623XXSP,2013-02-07 03:17:00,
2013-02-06 21:22:00,33.6,28.6,30.11,SE,135,8.1,11.0,82,0.00,,,0.00,WUHU21623XXSP,2013-02-07 03:22:00,
2013-02-06 21:27:00,33.6,28.6,30.11,SSE,157,4.7,8.1,82,0.00,,,0.00,WUHU21623XXSP,2013-02-07 03:27:00,
2013-02-06 21:33:00,33.6,28.6,30.12,South,180,7.4,7.6,82,0.00,,,0.00,WUHU21623XXSP,2013-02-07 03:33:00,
2013-02-06 21:38:00,33.6,28.6,30.12,SSE,157,6.7,8.9,82,0.00,,,0.00,WUHU21623XXSP,2013-02-07 03:38:00,
2013-02-06 21:43:00,33.8,28.6,30.12,SSE,157,4.0,8.9,82,0.00,,,0.00,WUHU21623XXSP,2013-02-07 03:43:00,
2013-02-06 21:48:00,33.6,28.6,30.12,SSE,157,2.9,6.9,82,0.00,,,0.00,WUHU21623XXSP,2013-02-07 03:48:00,
2013-02-06 21:53:00,33.6,28.8,30.13,South,180,3.6,6.0,82,0.00,,,0.00,WUHU21623XXSP,2013-02-07 03:53:00,
2013-02-06 21:58:00,33.8,28.8,30.13,SSE,157,4.3,6.9,82,0.00,,,0.00,WUHU21623XXSP,2013-02-07 03:58:00,
2013-02-06 22:03:00,33.6,28.6,30.13,SSE,157,6.7,6.9,82,0.00,,,0.00,WUHU21623XXSP,2013-02-07 04:03:00,
2013-02-06 22:08:00,33.6,28.6,30.13,SSE,157,6.3,6.7,82,0.00,,,0.00,WUHU21623XXSP,2013-02-07 04:08:00,
2013-02-06 22:13:00,33.6,28.6,30.13,SSE,157,6.0,8.5,82,0.00,,,0.00,WUHU21623XXSP,2013-02-07 04:13:00,
2013-02-06 22:18:00,33.6,28.6,30.13,SE,135,4.3,8.5,82,0.00,,,0.00,WUHU21623XXSP,2013-02-07 04:18:00,
2013-02-06 22:23:00,33.6,28.6,30.12,SSE,157,6.3,6.7,82,0.00,,,0.00,WUHU21623XXSP,2013-02-07 04:23:00,
2013-02-06 22:28:00,33.6,28.6,30.12,SSE,157,9.2,9.2,82,0.00,,,0.00,WUHU21623XXSP,2013-02-07 04:28:00,
2013-02-06 22:33:00,33.6,28.6,30.13,SSE,157,7.4,9.2,82,0.00,,,0.00,WUHU21623XXSP,2013-02-07 04:33:00,
2013-02-06 22:38:00,33.6,28.6,30.13,SSE,157,6.7,7.4,82,0.00,,,0.00,WUHU21623XXSP,2013-02-07 04:38:00,
2013-02-06 22:43:00,33.6,28.6,30.13,South,180,7.4,8.3,82,0.00,,,0.00,WUHU21623XXSP,2013-02-07 04:43:00,
2013-02-06 22:49:00,33.6,28.6,30.13,South,180,7.4,8.3,82,0.00,,,0.00,WUHU21623XXSP,2013-02-07 04:49:00,
2013-02-06 22:54:00,33.6,28.6,30.13,SSE,157,3.1,7.4,82,0.00,,,0.00,WUHU21623XXSP,2013-02-07 04:54:00,
2013-02-06 22:59:00,33.6,28.6,30.12,SE,135,3.4,7.6,82,0.00,,,0.00,WUHU21623XXSP,2013-02-07 04:59:00,
2013-02-06 23:00:00,33.6,28.6,30.12,SE,135,3.4,7.6,82,0.00,,,0.00,WUHU21623XXSP,2013-02-07 05:00:00,
2013-02-06 23:02:00,33.6,28.6,30.12,SE,135,2.2,7.6,82,0.00,,,0.00,WUHU21623XXSP,2013-02-07 05:02:00,
2013-02-06 23:07:00,33.6,28.6,30.11,SSE,157,0.0,3.4,82,0.00,,,0.00,WUHU21623XXSP,2013-02-07 05:07:00,
2013-02-06 23:12:00,33.4,28.5,30.11,SSE,157,6.3,8.3,82,0.00,,,0.00,WUHU21623XXSP,2013-02-07 05:12:00,
2013-02-06 23:17:00,33.4,28.5,30.11,SSE,157,5.4,8.3,82,0.00,,,0.00,WUHU21623XXSP,2013-02-07 05:17:00,
2013-02-06 23:22:00,33.3,28.3,30.11,SSE,157,2.2,5.8,82,0.00,,,0.00,WUHU21623XXSP,2013-02-07 05:22:00,
2013-02-06 23:27:00,33.1,28.1,30.12,SSE,157,2.2,5.4,82,0.00,,,0.00,WUHU21623XXSP,2013-02-07 05:27:00,
2013-02-06 23:32:00,33.1,28.3,30.12,SE,135,2.9,2.9,82,0.00,,,0.00,WUHU21623XXSP,2013-02-07 05:32:00,
2013-02-06 23:37:00,33.1,28.1,30.12,SSE,157,0.0,2.9,82,0.00,,,0.00,WUHU21623XXSP,2013-02-07 05:37:00,
2013-02-06 23:42:00,32.9,28.1,30.12,SSE,157,0.0,2.9,82,0.00,,,0.00,WUHU21623XXSP,2013-02-07 05:42:00,
2013-02-06 23:47:00,32.9,28.0,30.12,SSE,157,0.0,0.0,82,0.00,,,0.00,WUHU21623XXSP,2013-02-07 05:47:00,
2013-02-06 23:52:00,32.7,28.1,30.12,SSE,157,0.0,1.6,83,0.00,,,0.00,WUHU21623XXSP,2013-02-07 05:52:00,
2013-02-06 23:57:00,32.7,28.1,30.12,SSE,157,0.0,1.6,83,0.00,,,0.00,WUHU21623XXSP,2013-02-07 05:57:00,